Time,TemperatureF,DewpointF,PressureIn,WindDirection,WindDirectionDegrees,WindSpeedMPH,WindSpeedGustMPH,Humidity,HourlyPrecipIn,Conditions,Clouds,dailyrainin,SoftwareType,DateUTC
2013-05-24 00:01:00,56.8,46.8,30.09,NW,321,3.5,0.0,69,0.00,CLR,,0.00,WeatherDisplay:10.37,2013-05-24 07:01:00,
2013-05-24 00:06:00,56.8,46.8,30.09,West,270,3.5,0.0,69,0.00,CLR,,0.00,WeatherDisplay:10.37,2013-05-24 07:06:00,
2013-05-24 00:11:00,56.8,46.4,30.09,WSW,254,2.3,0.0,68,0.00,CLR,,0.00,WeatherDisplay:10.37,2013-05-24 07:11:00,
2013-05-24 00:16:00,56.8,46.4,30.09,SW,231,0.0,0.0,68,0.00,CLR,,0.00,WeatherDisplay:10.37,2013-05-24 07:16:00,
2013-05-24 00:21:00,56.8,46.4,30.09,SSE,147,0.0,0.0,68,0.00,CLR,,0.00,WeatherDisplay:10.37,2013-05-24 07:21:00,
2013-05-24 00:26:00,56.8,46.4,30.09,WSW,241,0.0,0.0,68,0.00,CLR,,0.00,WeatherDisplay:10.37,2013-05-24 07:26:00,
2013-05-24 00:31:00,56.8,46.0,30.09,WSW,250,0.0,0.0,67,0.00,CLR,,0.00,WeatherDisplay:10.37,2013-05-24 07:31:00,
2013-05-24 00:36:00,56.8,46.0,30.09,WSW,253,0.0,0.0,67,0.00,CLR,,0.00,WeatherDisplay:10.37,2013-05-24 07:36:00,
2013-05-24 00:41:00,56.8,46.0,30.09,WSW,242,0.0,0.0,67,0.00,CLR,,0.00,WeatherDisplay:10.37,2013-05-24 07:41:00,
2013-05-24 00:46:00,56.8,46.0,30.09,ESE,105,0.0,0.0,67,0.00,CLR,,0.00,WeatherDisplay:10.37,2013-05-24 07:46:00,
2013-05-24 00:51:00,56.8,46.0,30.09,ESE,113,0.0,0.0,67,0.00,CLR,,0.00,WeatherDisplay:10.37,2013-05-24 07:51:00,
2013-05-24 00:56:00,57.0,46.2,30.09,ESE,103,0.0,0.0,67,0.00,CLR,,0.00,WeatherDisplay:10.37,2013-05-24 07:56:00,
2013-05-24 01:01:00,57.0,46.2,30.09,East,95,0.0,0.0,67,0.00,CLR,,0.00,WeatherDisplay:10.37,2013-05-24 08:01:00,
2013-05-24 01:06:00,57.0,46.2,30.09,SE,138,0.0,0.0,67,0.00,CLR,,0.00,WeatherDisplay:10.37,2013-05-24 08:06:00,
2013-05-24 01:11:00,57.0,46.2,30.09,South,187,3.5,0.0,67,0.00,CLR,,0.00,WeatherDisplay:10.37,2013-05-24 08:11:00,
2013-05-24 01:16:00,56.8,46.4,30.09,East,97,2.3,0.0,68,0.00,CLR,,0.00,WeatherDisplay:10.37,2013-05-24 08:16:00,
2013-05-24 01:21:00,56.8,46.4,30.09,NW,306,2.3,0.0,68,0.00,CLR,,0.00,WeatherDisplay:10.37,2013-05-24 08:21:00,
2013-05-24 01:26:00,56.8,46.4,30.09,South,181,0.0,0.0,68,0.00,CLR,,0.00,WeatherDisplay:10.37,2013-05-24 08:26:00,
2013-05-24 01:31:00,56.8,46.0,30.09,South,178,0.0,0.0,67,0.00,CLR,,0.00,WeatherDisplay:10.37,2013-05-24 08:31:00,
2013-05-24 01:36:00,56.8,46.0,30.09,ESE,113,0.0,0.0,67,0.00,CLR,,0.00,WeatherDisplay:10.37,2013-05-24 08:36:00,
2013-05-24 01:41:00,56.8,46.0,30.09,SSE,156,2.3,0.0,67,0.00,CLR,,0.00,WeatherDisplay:10.37,2013-05-24 08:41:00,
2013-05-24 01:46:00,56.8,46.0,30.09,SW,221,0.0,0.0,67,0.00,CLR,,0.00,WeatherDisplay:10.37,2013-05-24 08:46:00,
2013-05-24 01:51:00,56.8,46.0,30.09,SE,126,2.3,0.0,67,0.00,CLR,,0.00,WeatherDisplay:10.37,2013-05-24 08:51:00,
2013-05-24 01:56:00,56.8,45.6,30.09,South,186,2.3,0.0,66,0.00,CLR,,0.00,WeatherDisplay:10.37,2013-05-24 08:56:00,
2013-05-24 02:01:00,56.8,45.6,30.09,WNW,283,0.0,0.0,66,0.00,CLR,,0.00,WeatherDisplay:10.37,2013-05-24 09:01:00,
2013-05-24 02:06:00,56.8,45.6,30.09,ENE,77,0.0,0.0,66,0.00,CLR,,0.00,WeatherDisplay:10.37,2013-05-24 09:06:00,
2013-05-24 02:11:00,56.8,45.6,30.09,SSW,204,3.5,0.0,66,0.00,CLR,,0.00,WeatherDisplay:10.37,2013-05-24 09:11:00,
2013-05-24 02:16:00,56.7,45.0,30.09,SSE,152,0.0,0.0,65,0.00,CLR,,0.00,WeatherDisplay:10.37,2013-05-24 09:16:00,
2013-05-24 02:21:00,56.7,45.0,30.09,SW,224,0.0,0.0,65,0.00,CLR,,0.00,WeatherDisplay:10.37,2013-05-24 09:21:00,
2013-05-24 02:26:00,56.7,45.0,30.09,WSW,239,2.3,0.0,65,0.00,CLR,,0.00,WeatherDisplay:10.37,2013-05-24 09:26:00,
2013-05-24 02:31:00,56.7,45.0,30.09,SE,137,2.3,0.0,65,0.00,CLR,,0.00,WeatherDisplay:10.37,2013-05-24 09:31:00,
2013-05-24 02:36:00,56.7,45.0,30.09,SSW,210,0.0,0.0,65,0.00,CLR,,0.00,WeatherDisplay:10.37,2013-05-24 09:36:00,
2013-05-24 02:41:00,56.7,44.6,30.09,West,280,0.0,0.0,64,0.00,CLR,,0.00,WeatherDisplay:10.37,2013-05-24 09:41:00,
2013-05-24 02:46:00,56.7,44.6,30.09,West,274,0.0,0.0,64,0.00,CLR,,0.00,WeatherDisplay:10.37,2013-05-24 09:46:00,
2013-05-24 02:51:00,56.8,44.8,30.09,South,190,0.0,0.0,64,0.00,CLR,,0.00,WeatherDisplay:10.37,2013-05-24 09:51:00,
2013-05-24 02:56:00,56.8,44.8,30.09,SW,233,0.0,0.0,64,0.00,CLR,,0.00,WeatherDisplay:10.37,2013-05-24 09:56:00,
2013-05-24 03:01:00,56.8,44.8,30.09,WSW,244,0.0,0.0,64,0.00,CLR,,0.00,WeatherDisplay:10.37,2013-05-24 10:01:00,
2013-05-24 03:06:00,56.8,44.8,30.09,WSW,246,0.0,0.0,64,0.00,CLR,,0.00,WeatherDisplay:10.37,2013-05-24 10:06:00,
2013-05-24 03:11:00,56.8,44.8,30.09,SW,231,0.0,0.0,64,0.00,CLR,,0.00,WeatherDisplay:10.37,2013-05-24 10:11:00,
2013-05-24 03:16:00,56.8,44.8,30.09,South,186,0.0,0.0,64,0.00,CLR,,0.00,WeatherDisplay:10.37,2013-05-24 10:16:00,
2013-05-24 03:21:00,56.8,44.4,30.09,South,179,0.0,0.0,63,0.00,CLR,,0.00,WeatherDisplay:10.37,2013-05-24 10:21:00,
2013-05-24 03:26:00,56.8,44.4,30.09,West,270,0.0,0.0,63,0.00,CLR,,0.00,WeatherDisplay:10.37,2013-05-24 10:26:00,
2013-05-24 03:31:00,56.8,44.0,30.09,West,263,2.3,0.0,62,0.00,CLR,,0.00,WeatherDisplay:10.37,2013-05-24 10:31:00,
2013-05-24 03:36:00,56.7,43.8,30.09,West,266,2.3,0.0,62,0.00,CLR,,0.00,WeatherDisplay:10.37,2013-05-24 10:36:00,
2013-05-24 03:41:00,56.8,43.5,30.09,SW,235,4.6,0.0,61,0.00,CLR,,0.00,WeatherDisplay:10.37,2013-05-24 10:41:00,
2013-05-24 03:46:00,56.8,43.5,30.09,SW,236,0.0,0.0,61,0.00,CLR,,0.00,WeatherDisplay:10.37,2013-05-24 10:46:00,
2013-05-24 03:51:00,56.8,43.5,30.09,WSW,242,0.0,0.0,61,0.00,CLR,,0.00,WeatherDisplay:10.37,2013-05-24 10:51:00,
2013-05-24 03:56:00,56.8,43.1,30.09,WSW,254,4.0,0.0,60,0.00,CLR,,0.00,WeatherDisplay:10.37,2013-05-24 10:56:00,
2013-05-24 04:01:00,56.8,43.1,30.09,NNW,345,0.0,0.0,60,0.00,CLR,,0.00,WeatherDisplay:10.37,2013-05-24 11:01:00,
2013-05-24 04:06:00,56.8,43.1,30.09,SW,234,2.3,0.0,60,0.00,CLR,,0.00,WeatherDisplay:10.37,2013-05-24 11:06:00,
2013-05-24 04:11:00,56.8,42.7,30.09,WSW,250,2.3,0.0,59,0.00,CLR,,0.00,WeatherDisplay:10.37,2013-05-24 11:11:00,
2013-05-24 04:16:00,56.8,42.7,30.09,West,267,3.5,3.5,59,0.00,CLR,,0.00,WeatherDisplay:10.37,2013-05-24 11:16:00,
2013-05-24 04:21:00,56.8,42.7,30.09,WSW,243,0.0,0.0,59,0.00,CLR,,0.00,WeatherDisplay:10.37,2013-05-24 11:21:00,
2013-05-24 04:26:00,56.8,42.2,30.09,West,277,0.0,0.0,58,0.00,CLR,,0.00,WeatherDisplay:10.37,2013-05-24 11:26:00,
2013-05-24 04:31:00,56.8,42.2,30.09,SSE,152,3.5,0.0,58,0.00,CLR,,0.00,WeatherDisplay:10.37,2013-05-24 11:31:00,
2013-05-24 04:36:00,56.8,42.2,30.09,SW,236,3.5,3.5,58,0.00,CLR,,0.00,WeatherDisplay:10.37,2013-05-24 11:36:00,
2013-05-24 04:41:00,56.7,42.0,30.09,WSW,246,0.0,0.0,58,0.00,CLR,,0.00,WeatherDisplay:10.37,2013-05-24 11:41:00,
2013-05-24 04:46:00,56.7,41.6,30.09,SSW,211,3.6,0.0,57,0.00,CLR,,0.00,WeatherDisplay:10.37,2013-05-24 11:46:00,
2013-05-24 04:51:00,56.7,41.6,30.09,SW,219,0.0,0.0,57,0.00,CLR,,0.00,WeatherDisplay:10.37,2013-05-24 11:51:00,
2013-05-24 04:56:00,56.7,41.6,30.09,ESE,122,2.3,0.0,57,0.00,CLR,,0.00,WeatherDisplay:10.37,2013-05-24 11:56:00,
2013-05-24 05:01:00,56.7,42.0,30.09,ESE,111,0.0,0.0,58,0.00,CLR,,0.00,WeatherDisplay:10.37,2013-05-24 12:01:00,
2013-05-24 05:06:00,56.8,42.2,30.09,SE,126,0.0,0.0,58,0.00,CLR,,0.00,WeatherDisplay:10.37,2013-05-24 12:06:00,
2013-05-24 05:11:00,56.8,42.7,30.09,ESE,117,3.6,3.6,59,0.00,CLR,,0.00,WeatherDisplay:10.37,2013-05-24 12:11:00,
2013-05-24 05:16:00,56.8,42.7,30.09,SE,132,0.0,0.0,59,0.00,CLR,,0.00,WeatherDisplay:10.37,2013-05-24 12:16:00,
2013-05-24 05:21:00,56.8,42.7,30.09,SW,236,3.5,0.0,59,0.00,CLR,,0.00,WeatherDisplay:10.37,2013-05-24 12:21:00,
2013-05-24 05:26:00,56.8,42.2,30.09,WSW,242,3.5,0.0,58,0.00,CLR,,0.00,WeatherDisplay:10.37,2013-05-24 12:26:00,
2013-05-24 05:31:00,56.8,42.2,30.09,WSW,237,0.0,0.0,58,0.00,CLR,,0.00,WeatherDisplay:10.37,2013-05-24 12:31:00,
2013-05-24 05:36:00,56.8,42.2,30.09,WSW,248,0.0,0.0,58,0.00,CLR,,0.00,WeatherDisplay:10.37,2013-05-24 12:36:00,
2013-05-24 05:41:00,56.8,42.2,30.09,SE,125,0.0,0.0,58,0.00,CLR,,0.00,WeatherDisplay:10.37,2013-05-24 12:41:00,
2013-05-24 05:46:00,56.8,41.8,30.09,SE,133,0.0,0.0,57,0.00,CLR,,0.00,WeatherDisplay:10.37,2013-05-24 12:46:00,
2013-05-24 05:51:00,56.8,41.8,30.09,WSW,238,0.0,0.0,57,0.00,CLR,,0.00,WeatherDisplay:10.37,2013-05-24 12:51:00,
2013-05-24 05:56:00,56.8,41.8,30.09,South,172,0.0,0.0,57,0.00,CLR,,0.00,WeatherDisplay:10.37,2013-05-24 12:56:00,
2013-05-24 06:01:00,56.8,41.8,30.09,South,172,2.3,0.0,57,0.00,CLR,,0.00,WeatherDisplay:10.37,2013-05-24 13:01:00,
2013-05-24 06:06:00,56.8,41.3,30.12,WNW,286,0.0,0.0,56,0.00,CLR,,0.00,WeatherDisplay:10.37,2013-05-24 13:06:00,
2013-05-24 06:11:00,56.8,41.3,30.12,West,279,0.0,0.0,56,0.00,CLR,,0.00,WeatherDisplay:10.37,2013-05-24 13:11:00,
2013-05-24 06:16:00,56.8,41.3,30.12,ENE,74,0.0,0.0,56,0.00,CLR,,0.00,WeatherDisplay:10.37,2013-05-24 13:16:00,
2013-05-24 06:21:00,56.8,41.3,30.12,West,274,0.0,0.0,56,0.00,CLR,,0.00,WeatherDisplay:10.37,2013-05-24 13:21:00,
2013-05-24 06:26:00,56.8,40.8,30.12,WSW,252,0.0,0.0,55,0.00,CLR,,0.00,WeatherDisplay:10.37,2013-05-24 13:26:00,
2013-05-24 06:31:00,56.8,40.8,30.12,WSW,243,0.0,0.0,55,0.00,CLR,,0.00,WeatherDisplay:10.37,2013-05-24 13:31:00,
2013-05-24 06:36:00,57.0,41.0,30.12,WSW,243,0.0,0.0,55,0.00,CLR,,0.00,WeatherDisplay:10.37,2013-05-24 13:36:00,
2013-05-24 06:41:00,57.2,40.7,30.12,WSW,257,3.5,0.0,54,0.00,CLR,,0.00,WeatherDisplay:10.37,2013-05-24 13:41:00,
2013-05-24 06:46:00,57.2,40.7,30.12,WSW,237,2.3,0.0,54,0.00,CLR,,0.00,WeatherDisplay:10.37,2013-05-24 13:46:00,
2013-05-24 06:51:00,57.4,40.4,30.12,WSW,251,0.0,0.0,53,0.00,CLR,,0.00,WeatherDisplay:10.37,2013-05-24 13:51:00,
2013-05-24 06:56:00,57.4,40.4,30.12,WSW,237,0.0,0.0,53,0.00,CLR,,0.00,WeatherDisplay:10.37,2013-05-24 13:56:00,
2013-05-24 07:01:00,57.6,40.5,30.12,East,98,0.0,0.0,53,0.00,CLR,,0.00,WeatherDisplay:10.37,2013-05-24 14:01:00,
2013-05-24 07:06:00,57.7,40.2,30.12,WSW,247,3.1,0.0,52,0.00,CLR,,0.00,WeatherDisplay:10.37,2013-05-24 14:06:00,
2013-05-24 07:11:00,57.9,39.9,30.12,ESE,118,2.2,0.0,51,0.00,CLR,,0.00,WeatherDisplay:10.37,2013-05-24 14:11:00,
2013-05-24 07:16:00,57.9,39.4,30.12,ENE,76,0.0,0.0,50,0.00,CLR,,0.00,WeatherDisplay:10.37,2013-05-24 14:16:00,
2013-05-24 07:21:00,57.9,39.4,30.12,ESE,116,0.0,0.0,50,0.00,CLR,,0.00,WeatherDisplay:10.37,2013-05-24 14:21:00,
2013-05-24 07:26:00,57.7,39.2,30.12,ESE,118,0.0,0.0,50,0.00,CLR,,0.00,WeatherDisplay:10.37,2013-05-24 14:26:00,
2013-05-24 07:31:00,57.7,38.7,30.12,South,171,0.0,0.0,49,0.00,CLR,,0.00,WeatherDisplay:10.37,2013-05-24 14:31:00,
2013-05-24 07:36:00,57.7,38.7,30.12,West,268,0.0,0.0,49,0.00,CLR,,0.00,WeatherDisplay:10.37,2013-05-24 14:36:00,
2013-05-24 07:41:00,57.7,38.7,30.12,WSW,249,0.0,0.0,49,0.00,CLR,,0.00,WeatherDisplay:10.37,2013-05-24 14:41:00,
2013-05-24 07:46:00,57.7,38.7,30.12,WSW,241,2.3,0.0,49,0.00,CLR,,0.00,WeatherDisplay:10.37,2013-05-24 14:46:00,
2013-05-24 07:51:00,58.1,39.0,30.12,West,271,0.0,0.0,49,0.00,CLR,,0.00,WeatherDisplay:10.37,2013-05-24 14:51:00,
2013-05-24 07:56:00,58.5,39.4,30.12,SW,231,0.0,0.0,49,0.00,CLR,,0.00,WeatherDisplay:10.37,2013-05-24 14:56:00,
2013-05-24 08:01:00,58.6,39.5,30.12,WSW,240,2.3,0.0,49,0.00,CLR,,0.00,WeatherDisplay:10.37,2013-05-24 15:01:00,
2013-05-24 08:06:00,58.8,39.2,30.12,WSW,237,0.0,0.0,48,0.00,CLR,,0.00,WeatherDisplay:10.37,2013-05-24 15:06:00,
2013-05-24 08:11:00,58.6,39.0,30.12,NNW,330,0.0,0.0,48,0.00,CLR,,0.00,WeatherDisplay:10.37,2013-05-24 15:11:00,
2013-05-24 08:16:00,58.5,38.3,30.12,SW,235,3.5,0.0,47,0.00,CLR,,0.00,WeatherDisplay:10.37,2013-05-24 15:16:00,
2013-05-24 08:21:00,58.3,38.1,30.12,West,259,0.0,0.0,47,0.00,CLR,,0.00,WeatherDisplay:10.37,2013-05-24 15:21:00,
2013-05-24 08:26:00,58.5,38.3,30.12,WSW,252,3.5,0.0,47,0.00,CLR,,0.00,WeatherDisplay:10.37,2013-05-24 15:26:00,
2013-05-24 08:31:00,58.6,38.5,30.12,WSW,253,0.0,0.0,47,0.00,CLR,,0.00,WeatherDisplay:10.37,2013-05-24 15:31:00,
2013-05-24 08:36:00,58.8,38.6,30.12,WSW,241,0.0,0.0,47,0.00,CLR,,0.00,WeatherDisplay:10.37,2013-05-24 15:36:00,
2013-05-24 08:41:00,59.4,39.1,30.12,WSW,253,0.0,0.0,47,0.00,CLR,,0.00,WeatherDisplay:10.37,2013-05-24 15:41:00,
2013-05-24 08:46:00,59.7,38.9,30.12,SW,230,2.7,0.0,46,0.00,CLR,,0.00,WeatherDisplay:10.37,2013-05-24 15:46:00,
2013-05-24 08:51:00,60.1,39.2,30.12,NNW,340,3.5,3.5,46,0.00,CLR,,0.00,WeatherDisplay:10.37,2013-05-24 15:51:00,
2013-05-24 08:56:00,60.6,39.1,30.12,SW,214,3.5,0.0,45,0.00,CLR,,0.00,WeatherDisplay:10.37,2013-05-24 15:56:00,
2013-05-24 09:01:00,60.8,38.7,30.12,WNW,295,3.5,0.0,44,0.00,CLR,,0.00,WeatherDisplay:10.37,2013-05-24 16:01:00,
2013-05-24 09:06:00,61.0,38.9,30.15,WSW,241,0.0,0.0,44,0.00,CLR,,0.00,WeatherDisplay:10.37,2013-05-24 16:06:00,
2013-05-24 09:11:00,61.3,38.6,30.15,WSW,241,3.1,0.0,43,0.00,CLR,,0.00,WeatherDisplay:10.37,2013-05-24 16:11:00,
2013-05-24 09:16:00,61.5,37.6,30.15,WSW,237,5.8,5.8,41,0.00,CLR,,0.00,WeatherDisplay:10.37,2013-05-24 16:16:00,
2013-05-24 09:21:00,61.5,37.0,30.12,SW,224,0.0,0.0,40,0.00,CLR,,0.00,WeatherDisplay:10.37,2013-05-24 16:21:00,
2013-05-24 09:26:00,61.7,37.1,30.12,WSW,248,3.5,4.0,40,0.00,CLR,,0.00,WeatherDisplay:10.37,2013-05-24 16:26:00,
2013-05-24 09:31:00,61.7,36.5,30.12,West,272,4.6,4.6,39,0.00,CLR,,0.00,WeatherDisplay:10.37,2013-05-24 16:31:00,
2013-05-24 09:36:00,61.7,35.8,30.12,WNW,287,3.5,3.6,38,0.00,CLR,,0.00,WeatherDisplay:10.37,2013-05-24 16:36:00,
2013-05-24 09:41:00,62.1,36.8,30.12,North,350,3.5,3.5,39,0.00,CLR,,0.00,WeatherDisplay:10.37,2013-05-24 16:41:00,
2013-05-24 09:46:00,62.8,36.1,30.12,WSW,238,3.5,3.5,37,0.00,CLR,,0.00,WeatherDisplay:10.37,2013-05-24 16:46:00,
2013-05-24 09:51:00,63.1,35.7,30.12,SW,228,3.5,0.0,36,0.00,CLR,,0.00,WeatherDisplay:10.37,2013-05-24 16:51:00,
2013-05-24 09:56:00,63.5,35.3,30.12,SW,229,3.5,0.0,35,0.00,CLR,,0.00,WeatherDisplay:10.37,2013-05-24 16:56:00,
2013-05-24 10:01:00,64.0,35.1,30.12,SW,228,4.6,4.6,34,0.00,CLR,,0.00,WeatherDisplay:10.37,2013-05-24 17:01:00,
2013-05-24 10:06:00,64.0,35.1,30.12,SW,231,2.3,0.0,34,0.00,CLR,,0.00,WeatherDisplay:10.37,2013-05-24 17:06:00,
2013-05-24 10:11:00,64.6,35.6,30.12,NNE,25,0.0,0.0,34,0.00,CLR,,0.00,WeatherDisplay:10.37,2013-05-24 17:11:00,
2013-05-24 10:16:00,64.9,35.9,30.12,WNW,302,3.5,0.0,34,0.00,CLR,,0.00,WeatherDisplay:10.37,2013-05-24 17:16:00,
2013-05-24 10:21:00,65.3,36.2,30.12,SE,146,3.5,0.0,34,0.00,CLR,,0.00,WeatherDisplay:10.37,2013-05-24 17:21:00,
2013-05-24 10:26:00,65.7,36.5,30.12,WNW,302,3.5,0.0,34,0.00,CLR,,0.00,WeatherDisplay:10.37,2013-05-24 17:26:00,
2013-05-24 10:31:00,65.8,35.9,30.12,WNW,298,5.8,5.8,33,0.00,CLR,,0.00,WeatherDisplay:10.37,2013-05-24 17:31:00,
2013-05-24 10:36:00,66.0,36.1,30.12,WSW,244,4.6,4.6,33,0.00,CLR,,0.00,WeatherDisplay:10.37,2013-05-24 17:36:00,
2013-05-24 10:41:00,66.0,36.1,30.12,SW,235,4.0,4.0,33,0.00,CLR,,0.00,WeatherDisplay:10.37,2013-05-24 17:41:00,
2013-05-24 10:46:00,66.2,35.4,30.12,NNW,343,3.5,0.0,32,0.00,CLR,,0.00,WeatherDisplay:10.37,2013-05-24 17:46:00,
2013-05-24 10:51:00,66.9,36.9,30.12,West,275,3.5,3.6,33,0.00,CLR,,0.00,WeatherDisplay:10.37,2013-05-24 17:51:00,
2013-05-24 10:56:00,66.9,36.1,30.12,WSW,250,5.8,0.0,32,0.00,CLR,,0.00,WeatherDisplay:10.37,2013-05-24 17:56:00,
2013-05-24 11:01:00,66.7,35.9,30.12,East,88,3.5,3.5,32,0.00,CLR,,0.00,WeatherDisplay:10.37,2013-05-24 18:01:00,
2013-05-24 11:06:00,67.8,37.6,30.12,ENE,72,3.5,0.0,33,0.00,CLR,,0.00,WeatherDisplay:10.37,2013-05-24 18:06:00,
2013-05-24 11:11:00,68.4,36.5,30.12,WNW,282,5.8,5.8,31,0.00,CLR,,0.00,WeatherDisplay:10.37,2013-05-24 18:11:00,
2013-05-24 11:16:00,68.0,35.4,30.12,SW,222,3.5,3.5,30,0.00,CLR,,0.00,WeatherDisplay:10.37,2013-05-24 18:16:00,
2013-05-24 11:21:00,68.0,36.2,30.12,West,278,3.5,0.0,31,0.00,CLR,,0.00,WeatherDisplay:10.37,2013-05-24 18:21:00,
2013-05-24 11:26:00,68.7,34.3,30.12,West,263,3.5,3.5,28,0.00,CLR,,0.00,WeatherDisplay:10.37,2013-05-24 18:26:00,
2013-05-24 11:31:00,68.9,33.5,30.12,SW,225,3.5,3.5,27,0.00,CLR,,0.00,WeatherDisplay:10.37,2013-05-24 18:31:00,
2013-05-24 11:36:00,69.6,33.2,30.12,WSW,245,5.8,5.8,26,0.00,CLR,,0.00,WeatherDisplay:10.37,2013-05-24 18:36:00,
2013-05-24 11:41:00,69.8,33.3,30.12,NW,321,3.5,0.0,26,0.00,CLR,,0.00,WeatherDisplay:10.37,2013-05-24 18:41:00,
2013-05-24 11:46:00,70.3,33.8,30.12,NW,317,3.5,0.0,26,0.00,CLR,,0.00,WeatherDisplay:10.37,2013-05-24 18:46:00,
2013-05-24 11:51:00,70.7,32.1,30.12,SW,220,2.7,0.0,24,0.00,CLR,,0.00,WeatherDisplay:10.37,2013-05-24 18:51:00,
2013-05-24 11:56:00,70.9,31.2,30.12,West,264,3.6,3.6,23,0.00,CLR,,0.00,WeatherDisplay:10.37,2013-05-24 18:56:00,
2013-05-24 12:01:00,71.2,31.5,30.12,WNW,301,5.8,5.8,23,0.00,CLR,,0.00,WeatherDisplay:10.37,2013-05-24 19:01:00,
2013-05-24 12:06:00,71.4,31.7,30.12,NW,308,8.1,8.1,23,0.00,CLR,,0.00,WeatherDisplay:10.37,2013-05-24 19:06:00,
2013-05-24 12:11:00,71.6,31.8,30.12,South,186,2.3,0.0,23,0.00,CLR,,0.00,WeatherDisplay:10.37,2013-05-24 19:11:00,
2013-05-24 12:16:00,71.8,30.9,30.12,SW,216,8.1,8.1,22,0.00,CLR,,0.00,WeatherDisplay:10.37,2013-05-24 19:16:00,
2013-05-24 12:21:00,72.1,31.2,30.12,SW,232,4.6,4.6,22,0.00,CLR,,0.00,WeatherDisplay:10.37,2013-05-24 19:21:00,
2013-05-24 12:26:00,72.3,31.3,30.12,WSW,247,3.5,3.5,22,0.00,CLR,,0.00,WeatherDisplay:10.37,2013-05-24 19:26:00,
2013-05-24 12:31:00,72.7,31.6,30.12,NNE,28,2.3,0.0,22,0.00,CLR,,0.00,WeatherDisplay:10.37,2013-05-24 19:31:00,
2013-05-24 12:36:00,73.2,32.1,30.12,WSW,252,3.5,3.5,22,0.00,CLR,,0.00,WeatherDisplay:10.37,2013-05-24 19:36:00,
2013-05-24 12:41:00,73.2,32.1,30.12,West,274,5.8,5.8,22,0.00,CLR,,0.00,WeatherDisplay:10.37,2013-05-24 19:41:00,
2013-05-24 12:46:00,72.9,31.8,30.12,WSW,251,5.8,5.8,22,0.00,CLR,,0.00,WeatherDisplay:10.37,2013-05-24 19:46:00,
2013-05-24 12:51:00,72.9,31.8,30.12,South,188,6.9,6.9,22,0.00,CLR,,0.00,WeatherDisplay:10.37,2013-05-24 19:51:00,
2013-05-24 12:56:00,73.0,33.0,30.12,NNW,338,3.5,0.0,23,0.00,CLR,,0.00,WeatherDisplay:10.37,2013-05-24 19:56:00,
2013-05-24 13:01:00,73.4,31.1,30.12,West,281,5.8,5.8,21,0.00,CLR,,0.00,WeatherDisplay:10.37,2013-05-24 20:01:00,
2013-05-24 13:06:00,73.6,31.2,30.12,West,270,8.1,8.1,21,0.00,CLR,,0.00,WeatherDisplay:10.37,2013-05-24 20:06:00,
2013-05-24 13:11:00,73.8,31.4,30.12,West,276,5.8,5.8,21,0.00,CLR,,0.00,WeatherDisplay:10.37,2013-05-24 20:11:00,
2013-05-24 13:16:00,73.8,31.4,30.12,WSW,243,5.8,5.8,21,0.00,CLR,,0.00,WeatherDisplay:10.37,2013-05-24 20:16:00,
2013-05-24 13:21:00,73.4,31.1,30.12,SSE,160,5.8,5.8,21,0.00,CLR,,0.00,WeatherDisplay:10.37,2013-05-24 20:21:00,
2013-05-24 13:26:00,73.8,32.5,30.12,WSW,237,4.0,4.0,22,0.00,CLR,,0.00,WeatherDisplay:10.37,2013-05-24 20:26:00,
2013-05-24 13:31:00,74.5,33.1,30.12,SSE,160,3.6,3.6,22,0.00,CLR,,0.00,WeatherDisplay:10.37,2013-05-24 20:31:00,
2013-05-24 13:36:00,74.8,33.4,30.12,ESE,115,4.6,4.6,22,0.00,CLR,,0.00,WeatherDisplay:10.37,2013-05-24 20:36:00,
2013-05-24 13:41:00,75.6,34.0,30.12,South,171,6.9,6.9,22,0.00,CLR,,0.00,WeatherDisplay:10.37,2013-05-24 20:41:00,
2013-05-24 13:46:00,75.9,34.3,30.12,WSW,237,3.5,3.5,22,0.00,CLR,,0.00,WeatherDisplay:10.37,2013-05-24 20:46:00,
2013-05-24 13:51:00,76.1,33.3,30.12,WSW,254,3.5,3.5,21,0.00,CLR,,0.00,WeatherDisplay:10.37,2013-05-24 20:51:00,
2013-05-24 13:56:00,76.3,33.5,30.12,WSW,249,5.8,5.8,21,0.00,CLR,,0.00,WeatherDisplay:10.37,2013-05-24 20:56:00,
2013-05-24 14:01:00,75.7,33.0,30.12,WSW,239,4.0,4.0,21,0.00,CLR,,0.00,WeatherDisplay:10.37,2013-05-24 21:01:00,
2013-05-24 14:06:00,75.7,33.0,30.12,WSW,242,4.9,4.9,21,0.00,CLR,,0.00,WeatherDisplay:10.37,2013-05-24 21:06:00,
2013-05-24 14:11:00,75.6,31.6,30.12,WSW,239,4.6,4.6,20,0.00,CLR,,0.00,WeatherDisplay:10.37,2013-05-24 21:11:00,
2013-05-24 14:16:00,75.0,32.4,30.12,SSW,204,8.1,8.1,21,0.00,CLR,,0.00,WeatherDisplay:10.37,2013-05-24 21:16:00,
2013-05-24 14:21:00,74.5,33.1,30.12,SSW,202,6.9,6.9,22,0.00,CLR,,0.00,WeatherDisplay:10.37,2013-05-24 21:21:00,
2013-05-24 14:26:00,74.8,33.4,30.12,North,353,5.8,5.8,22,0.00,CLR,,0.00,WeatherDisplay:10.37,2013-05-24 21:26:00,
2013-05-24 14:31:00,75.2,33.7,30.12,WSW,242,5.8,5.8,22,0.00,CLR,,0.00,WeatherDisplay:10.37,2013-05-24 21:31:00,
2013-05-24 14:36:00,76.3,34.6,30.12,SW,224,3.6,3.6,22,0.00,CLR,,0.00,WeatherDisplay:10.37,2013-05-24 21:36:00,
2013-05-24 14:41:00,76.6,34.9,30.12,West,260,5.8,5.8,22,0.00,CLR,,0.00,WeatherDisplay:10.37,2013-05-24 21:41:00,
2013-05-24 14:46:00,76.1,34.5,30.12,SSE,165,8.1,8.1,22,0.00,CLR,,0.00,WeatherDisplay:10.37,2013-05-24 21:46:00,
2013-05-24 14:51:00,75.7,34.2,30.12,SW,231,4.6,4.6,22,0.00,CLR,,0.00,WeatherDisplay:10.37,2013-05-24 21:51:00,
2013-05-24 14:56:00,75.6,34.0,30.12,NNE,23,5.8,5.8,22,0.00,CLR,,0.00,WeatherDisplay:10.37,2013-05-24 21:56:00,
2013-05-24 15:01:00,75.9,34.3,30.12,NNW,340,9.2,9.2,22,0.00,CLR,,0.00,WeatherDisplay:10.37,2013-05-24 22:01:00,
2013-05-24 15:06:00,76.1,34.5,30.12,SW,217,8.1,8.1,22,0.00,CLR,,0.00,WeatherDisplay:10.37,2013-05-24 22:06:00,
2013-05-24 15:11:00,76.1,34.5,30.12,SSW,200,3.5,0.0,22,0.00,CLR,,0.00,WeatherDisplay:10.37,2013-05-24 22:11:00,
2013-05-24 15:16:00,76.1,34.5,30.12,WSW,247,3.5,3.5,22,0.00,CLR,,0.00,WeatherDisplay:10.37,2013-05-24 22:16:00,
2013-05-24 15:21:00,76.1,34.5,30.12,WNW,293,3.6,3.6,22,0.00,CLR,,0.00,WeatherDisplay:10.37,2013-05-24 22:21:00,
2013-05-24 15:26:00,76.3,34.6,30.12,South,179,4.6,4.6,22,0.00,CLR,,0.00,WeatherDisplay:10.37,2013-05-24 22:26:00,
2013-05-24 15:31:00,76.3,34.6,30.12,WNW,301,3.5,3.5,22,0.00,CLR,,0.00,WeatherDisplay:10.37,2013-05-24 22:31:00,
2013-05-24 15:36:00,76.5,34.8,30.12,WSW,257,3.5,0.0,22,0.00,CLR,,0.00,WeatherDisplay:10.37,2013-05-24 22:36:00,
2013-05-24 15:41:00,76.5,34.8,30.12,WNW,286,5.8,5.8,22,0.00,CLR,,0.00,WeatherDisplay:10.37,2013-05-24 22:41:00,
2013-05-24 15:46:00,76.5,34.8,30.12,West,263,3.6,3.6,22,0.00,CLR,,0.00,WeatherDisplay:10.37,2013-05-24 22:46:00,
2013-05-24 15:51:00,76.8,35.1,30.09,ESE,106,5.8,5.8,22,0.00,CLR,,0.00,WeatherDisplay:10.37,2013-05-24 22:51:00,
2013-05-24 15:56:00,77.4,34.4,30.09,North,353,8.1,8.1,21,0.00,CLR,,0.00,WeatherDisplay:10.37,2013-05-24 22:56:00,
2013-05-24 16:01:00,77.2,34.2,30.09,WSW,258,4.6,4.6,21,0.00,CLR,,0.00,WeatherDisplay:10.37,2013-05-24 23:01:00,
2013-05-24 16:06:00,77.0,34.1,30.09,WSW,251,3.5,3.5,21,0.00,CLR,,0.00,WeatherDisplay:10.37,2013-05-24 23:06:00,
2013-05-24 16:11:00,76.5,33.6,30.09,SW,232,3.5,3.6,21,0.00,CLR,,0.00,WeatherDisplay:10.37,2013-05-24 23:11:00,
2013-05-24 16:16:00,76.8,33.9,30.09,SSW,209,4.9,4.9,21,0.00,CLR,,0.00,WeatherDisplay:10.37,2013-05-24 23:16:00,
2013-05-24 16:21:00,77.2,33.0,30.09,WSW,254,5.8,5.8,20,0.00,CLR,,0.00,WeatherDisplay:10.37,2013-05-24 23:21:00,
2013-05-24 16:26:00,76.6,33.8,30.09,West,262,10.4,10.4,21,0.00,CLR,,0.00,WeatherDisplay:10.37,2013-05-24 23:26:00,
2013-05-24 16:31:00,75.9,29.3,30.09,WSW,245,5.8,5.8,18,0.00,CLR,,0.00,WeatherDisplay:10.37,2013-05-24 23:31:00,
2013-05-24 16:36:00,75.4,28.9,30.09,WSW,256,5.8,5.8,18,0.00,CLR,,0.00,WeatherDisplay:10.37,2013-05-24 23:36:00,
2013-05-24 16:41:00,75.2,31.3,30.09,West,272,5.8,5.8,20,0.00,CLR,,0.00,WeatherDisplay:10.37,2013-05-24 23:41:00,
2013-05-24 16:46:00,75.6,31.6,30.09,North,353,3.5,3.5,20,0.00,CLR,,0.00,WeatherDisplay:10.37,2013-05-24 23:46:00,
2013-05-24 16:51:00,75.7,33.0,30.09,WSW,246,5.8,5.8,21,0.00,CLR,,0.00,WeatherDisplay:10.37,2013-05-24 23:51:00,
2013-05-24 16:56:00,75.9,33.2,30.09,WNW,283,5.8,5.8,21,0.00,CLR,,0.00,WeatherDisplay:10.37,2013-05-24 23:56:00,
2013-05-24 17:01:00,76.1,33.3,30.09,WSW,256,5.8,5.8,21,0.00,CLR,,0.00,WeatherDisplay:10.37,2013-05-25 00:01:00,
2013-05-24 17:06:00,76.5,33.6,30.09,WSW,248,4.6,4.6,21,0.00,CLR,,0.00,WeatherDisplay:10.37,2013-05-25 00:06:00,
2013-05-24 17:11:00,76.8,33.9,30.09,SSW,200,3.5,0.0,21,0.00,CLR,,0.00,WeatherDisplay:10.37,2013-05-25 00:11:00,
2013-05-24 17:16:00,77.2,34.2,30.09,WSW,251,3.5,3.5,21,0.00,CLR,,0.00,WeatherDisplay:10.37,2013-05-25 00:16:00,
2013-05-24 17:21:00,77.0,32.8,30.09,West,268,3.5,3.5,20,0.00,CLR,,0.00,WeatherDisplay:10.37,2013-05-25 00:21:00,
2013-05-24 17:26:00,76.1,33.3,30.09,WSW,250,5.8,0.0,21,0.00,CLR,,0.00,WeatherDisplay:10.37,2013-05-25 00:26:00,
2013-05-24 17:31:00,76.1,33.3,30.09,North,3,3.5,3.5,21,0.00,CLR,,0.00,WeatherDisplay:10.37,2013-05-25 00:31:00,
2013-05-24 17:36:00,76.3,32.2,30.09,WNW,282,3.5,3.5,20,0.00,CLR,,0.00,WeatherDisplay:10.37,2013-05-25 00:36:00,
2013-05-24 17:41:00,75.7,33.0,30.09,ENE,77,3.5,3.5,21,0.00,CLR,,0.00,WeatherDisplay:10.37,2013-05-25 00:41:00,
2013-05-24 17:46:00,75.7,31.8,30.09,SSW,211,5.8,5.8,20,0.00,CLR,,0.00,WeatherDisplay:10.37,2013-05-25 00:46:00,
2013-05-24 17:51:00,75.6,32.9,30.09,NW,320,3.5,0.0,21,0.00,CLR,,0.00,WeatherDisplay:10.37,2013-05-25 00:51:00,
2013-05-24 17:56:00,75.2,31.3,30.09,ENE,58,3.5,3.5,20,0.00,CLR,,0.00,WeatherDisplay:10.37,2013-05-25 00:56:00,
2013-05-24 18:01:00,74.8,32.3,30.09,ESE,118,3.5,3.5,21,0.00,CLR,,0.00,WeatherDisplay:10.37,2013-05-25 01:01:00,
2013-05-24 18:06:00,74.8,32.3,30.09,SE,140,3.5,3.5,21,0.00,CLR,,0.00,WeatherDisplay:10.37,2013-05-25 01:06:00,
2013-05-24 18:11:00,74.8,32.3,30.09,SE,144,3.5,0.0,21,0.00,CLR,,0.00,WeatherDisplay:10.37,2013-05-25 01:11:00,
2013-05-24 18:16:00,75.0,28.6,30.09,WNW,285,3.5,3.6,18,0.00,CLR,,0.00,WeatherDisplay:10.37,2013-05-25 01:16:00,
2013-05-24 18:21:00,73.8,31.4,30.09,WSW,244,8.1,8.1,21,0.00,CLR,,0.00,WeatherDisplay:10.37,2013-05-25 01:21:00,
2013-05-24 18:26:00,73.2,30.9,30.09,WSW,244,4.0,0.0,21,0.00,CLR,,0.00,WeatherDisplay:10.37,2013-05-25 01:26:00,
2013-05-24 18:31:00,72.9,31.8,30.09,WNW,296,4.6,4.6,22,0.00,CLR,,0.00,WeatherDisplay:10.37,2013-05-25 01:31:00,
2013-05-24 18:36:00,72.5,31.5,30.09,WSW,250,5.8,5.8,22,0.00,CLR,,0.00,WeatherDisplay:10.37,2013-05-25 01:36:00,
2013-05-24 18:41:00,72.1,31.2,30.09,WSW,252,3.5,0.0,22,0.00,CLR,,0.00,WeatherDisplay:10.37,2013-05-25 01:41:00,
2013-05-24 18:46:00,72.1,31.2,30.09,WSW,248,4.6,4.6,22,0.00,CLR,,0.00,WeatherDisplay:10.37,2013-05-25 01:46:00,
2013-05-24 18:51:00,72.1,31.2,30.09,SSW,198,5.8,5.8,22,0.00,CLR,,0.00,WeatherDisplay:10.37,2013-05-25 01:51:00,
2013-05-24 18:56:00,71.8,30.9,30.09,SSW,204,3.5,3.5,22,0.00,CLR,,0.00,WeatherDisplay:10.37,2013-05-25 01:56:00,
2013-05-24 19:01:00,70.9,31.2,30.09,WSW,257,3.5,3.5,23,0.00,CLR,,0.00,WeatherDisplay:10.37,2013-05-25 02:01:00,
2013-05-24 19:06:00,70.0,30.5,30.09,WSW,254,3.5,3.5,23,0.00,CLR,,0.00,WeatherDisplay:10.37,2013-05-25 02:06:00,
2013-05-24 19:11:00,69.3,30.9,30.09,WNW,284,5.8,5.8,24,0.00,CLR,,0.00,WeatherDisplay:10.37,2013-05-25 02:11:00,
2013-05-24 19:16:00,68.7,31.4,30.09,WSW,240,3.5,0.0,25,0.00,CLR,,0.00,WeatherDisplay:10.37,2013-05-25 02:16:00,
2013-05-24 19:21:00,68.2,31.0,30.09,West,273,3.5,3.5,25,0.00,CLR,,0.00,WeatherDisplay:10.37,2013-05-25 02:21:00,
2013-05-24 19:26:00,67.5,30.4,30.09,SE,131,5.8,5.8,25,0.00,CLR,,0.00,WeatherDisplay:10.37,2013-05-25 02:26:00,
2013-05-24 19:31:00,66.9,30.9,30.09,WNW,286,2.3,0.0,26,0.00,CLR,,0.00,WeatherDisplay:10.37,2013-05-25 02:31:00,
2013-05-24 19:36:00,66.4,29.5,30.09,SW,221,2.3,0.0,25,0.00,CLR,,0.00,WeatherDisplay:10.37,2013-05-25 02:36:00,
2013-05-24 19:41:00,65.7,29.8,30.09,WSW,254,3.5,3.5,26,0.00,CLR,,0.00,WeatherDisplay:10.37,2013-05-25 02:41:00,
2013-05-24 19:46:00,64.8,29.0,30.09,SW,226,2.2,0.0,26,0.00,CLR,,0.00,WeatherDisplay:10.37,2013-05-25 02:46:00,
2013-05-24 19:51:00,64.2,28.6,30.09,WNW,289,3.5,0.0,26,0.00,CLR,,0.00,WeatherDisplay:10.37,2013-05-25 02:51:00,
2013-05-24 19:56:00,63.5,28.9,30.09,WNW,285,0.0,0.0,27,0.00,CLR,,0.00,WeatherDisplay:10.37,2013-05-25 02:56:00,
2013-05-24 20:01:00,63.0,28.4,30.09,West,279,0.0,0.0,27,0.00,CLR,,0.00,WeatherDisplay:10.37,2013-05-25 03:01:00,
2013-05-24 20:06:00,62.6,29.0,30.09,South,184,2.7,0.0,28,0.00,CLR,,0.00,WeatherDisplay:10.37,2013-05-25 03:06:00,
2013-05-24 20:11:00,62.2,29.6,30.09,SE,135,0.0,0.0,29,0.00,CLR,,0.00,WeatherDisplay:10.37,2013-05-25 03:11:00,
2013-05-24 20:16:00,61.9,29.2,30.09,NW,316,0.0,0.0,29,0.00,CLR,,0.00,WeatherDisplay:10.37,2013-05-25 03:16:00,
2013-05-24 20:21:00,61.5,29.8,30.09,NW,309,0.0,0.0,30,0.00,CLR,,0.00,WeatherDisplay:10.37,2013-05-25 03:21:00,
2013-05-24 20:26:00,61.2,31.0,30.09,SE,132,0.0,0.0,32,0.00,CLR,,0.00,WeatherDisplay:10.37,2013-05-25 03:26:00,
2013-05-24 20:31:00,61.0,31.6,30.09,WSW,251,2.3,0.0,33,0.00,CLR,,0.00,WeatherDisplay:10.37,2013-05-25 03:31:00,
2013-05-24 20:36:00,60.6,32.1,30.12,West,264,2.3,0.0,34,0.00,CLR,,0.00,WeatherDisplay:10.37,2013-05-25 03:36:00,
2013-05-24 20:41:00,60.4,31.9,30.12,West,276,0.0,0.0,34,0.00,CLR,,0.00,WeatherDisplay:10.37,2013-05-25 03:41:00,
2013-05-24 20:46:00,60.1,31.6,30.12,West,261,3.5,0.0,34,0.00,CLR,,0.00,WeatherDisplay:10.37,2013-05-25 03:46:00,
2013-05-24 20:51:00,59.7,32.0,30.09,WSW,253,0.0,0.0,35,0.00,CLR,,0.00,WeatherDisplay:10.37,2013-05-25 03:51:00,
2013-05-24 20:56:00,59.5,31.8,30.09,SSE,153,0.0,0.0,35,0.00,CLR,,0.00,WeatherDisplay:10.37,2013-05-25 03:56:00,
2013-05-24 21:01:00,59.4,31.7,30.09,SSW,209,0.0,0.0,35,0.00,CLR,,0.00,WeatherDisplay:10.37,2013-05-25 04:01:00,
2013-05-24 21:06:00,59.0,31.4,30.12,WNW,283,0.0,0.0,35,0.00,CLR,,0.00,WeatherDisplay:10.37,2013-05-25 04:06:00,
2013-05-24 21:11:00,58.6,31.7,30.12,SSW,203,0.0,0.0,36,0.00,CLR,,0.00,WeatherDisplay:10.37,2013-05-25 04:11:00,
2013-05-24 21:16:00,58.5,31.6,30.12,SSW,200,0.0,0.0,36,0.00,CLR,,0.00,WeatherDisplay:10.37,2013-05-25 04:16:00,
2013-05-24 21:21:00,58.3,32.1,30.12,ESE,111,0.0,0.0,37,0.00,CLR,,0.00,WeatherDisplay:10.37,2013-05-25 04:21:00,
2013-05-24 21:26:00,58.1,33.9,30.12,SSE,165,3.5,3.5,40,0.00,CLR,,0.00,WeatherDisplay:10.37,2013-05-25 04:26:00,
2013-05-24 21:31:00,57.7,36.5,30.12,East,97,3.5,0.0,45,0.00,CLR,,0.00,WeatherDisplay:10.37,2013-05-25 04:31:00,
2013-05-24 21:36:00,57.4,37.3,30.12,ESE,105,3.5,0.0,47,0.00,CLR,,0.00,WeatherDisplay:10.37,2013-05-25 04:36:00,
2013-05-24 21:41:00,57.0,37.0,30.12,SSE,157,0.0,0.0,47,0.00,CLR,,0.00,WeatherDisplay:10.37,2013-05-25 04:41:00,
2013-05-24 21:46:00,56.8,38.4,30.12,SSE,156,0.0,0.0,50,0.00,CLR,,0.00,WeatherDisplay:10.37,2013-05-25 04:46:00,
2013-05-24 21:51:00,56.5,38.6,30.12,SE,138,3.5,0.0,51,0.00,CLR,,0.00,WeatherDisplay:10.37,2013-05-25 04:51:00,
2013-05-24 21:56:00,56.1,38.2,30.12,NNE,23,0.0,0.0,51,0.00,CLR,,0.00,WeatherDisplay:10.37,2013-05-25 04:56:00,
2013-05-24 22:01:00,55.9,38.1,30.12,SE,145,0.0,0.0,51,0.00,CLR,,0.00,WeatherDisplay:10.37,2013-05-25 05:01:00,
2013-05-24 22:06:00,55.6,38.2,30.12,South,183,0.0,0.0,52,0.00,CLR,,0.00,WeatherDisplay:10.37,2013-05-25 05:06:00,
2013-05-24 22:11:00,55.4,38.1,30.12,SE,134,2.3,0.0,52,0.00,CLR,,0.00,WeatherDisplay:10.37,2013-05-25 05:11:00,
2013-05-24 22:16:00,55.2,38.9,30.12,West,259,2.3,0.0,54,0.00,CLR,,0.00,WeatherDisplay:10.37,2013-05-25 05:16:00,
2013-05-24 22:21:00,55.0,38.7,30.12,East,98,2.3,0.0,54,0.00,CLR,,0.00,WeatherDisplay:10.37,2013-05-25 05:21:00,
2013-05-24 22:26:00,54.9,39.0,30.12,ESE,115,0.0,0.0,55,0.00,CLR,,0.00,WeatherDisplay:10.37,2013-05-25 05:26:00,
2013-05-24 22:31:00,54.7,39.3,30.12,ESE,115,0.0,0.0,56,0.00,CLR,,0.00,WeatherDisplay:10.37,2013-05-25 05:31:00,
2013-05-24 22:36:00,54.5,39.6,30.12,South,172,0.0,0.0,57,0.00,CLR,,0.00,WeatherDisplay:10.37,2013-05-25 05:36:00,
2013-05-24 22:41:00,54.3,39.8,30.12,NW,305,0.0,0.0,58,0.00,CLR,,0.00,WeatherDisplay:10.37,2013-05-25 05:41:00,
2013-05-24 22:46:00,54.1,39.7,30.12,South,171,0.0,0.0,58,0.00,CLR,,0.00,WeatherDisplay:10.37,2013-05-25 05:46:00,
2013-05-24 22:51:00,54.1,40.1,30.15,NNW,338,0.0,0.0,59,0.00,CLR,,0.00,WeatherDisplay:10.37,2013-05-25 05:51:00,
2013-05-24 22:56:00,54.0,40.4,30.15,West,272,2.3,0.0,60,0.00,CLR,,0.00,WeatherDisplay:10.37,2013-05-25 05:56:00,
2013-05-24 23:01:00,53.8,40.6,30.15,West,265,0.0,0.0,61,0.00,CLR,,0.00,WeatherDisplay:10.37,2013-05-25 06:01:00,
2013-05-24 23:06:00,53.6,40.9,30.15,SW,219,0.0,0.0,62,0.00,CLR,,0.00,WeatherDisplay:10.37,2013-05-25 06:06:00,
2013-05-24 23:11:00,53.6,41.3,30.15,SSE,160,0.0,0.0,63,0.00,CLR,,0.00,WeatherDisplay:10.37,2013-05-25 06:11:00,
2013-05-24 23:16:00,53.4,41.5,30.15,SSE,148,0.0,0.0,64,0.00,CLR,,0.00,WeatherDisplay:10.37,2013-05-25 06:16:00,
2013-05-24 23:21:00,53.1,41.6,30.15,SSE,147,0.0,0.0,65,0.00,CLR,,0.00,WeatherDisplay:10.37,2013-05-25 06:21:00,
2013-05-24 23:26:00,53.1,42.0,30.15,SSE,147,0.0,0.0,66,0.00,CLR,,0.00,WeatherDisplay:10.37,2013-05-25 06:26:00,
2013-05-24 23:31:00,52.9,41.8,30.15,South,189,0.0,0.0,66,0.00,CLR,,0.00,WeatherDisplay:10.37,2013-05-25 06:31:00,
2013-05-24 23:36:00,52.7,42.0,30.15,SSW,202,0.0,0.0,67,0.00,CLR,,0.00,WeatherDisplay:10.37,2013-05-25 06:36:00,
2013-05-24 23:41:00,52.7,42.0,30.15,SSW,210,0.0,0.0,67,0.00,CLR,,0.00,WeatherDisplay:10.37,2013-05-25 06:41:00,
2013-05-24 23:46:00,52.5,42.3,30.15,SSW,210,0.0,0.0,68,0.00,CLR,,0.00,WeatherDisplay:10.37,2013-05-25 06:46:00,
2013-05-24 23:51:00,52.5,42.3,30.15,SSW,213,0.0,0.0,68,0.00,CLR,,0.00,WeatherDisplay:10.37,2013-05-25 06:51:00,
2013-05-24 23:56:00,52.5,42.6,30.15,SSE,156,0.0,0.0,69,0.00,CLR,,0.00,WeatherDisplay:10.37,2013-05-25 06:56:00,